Time,TemperatureF,DewpointF,PressureIn,WindDirection,WindDirectionDegrees,WindSpeedMPH,WindSpeedGustMPH,Humidity,HourlyPrecipIn,Conditions,Clouds,dailyrainin,SoftwareType,DateUTC
2016-02-10 00:09:00,28.9,22.0,30.36,West,277,0.0,0.0,75,0.00,,,0.00,weatherlink.com 1.10,2016-02-10 06:09:00,
2016-02-10 00:25:00,28.5,22.0,30.36,West,277,0.0,0.0,76,0.00,,,0.00,weatherlink.com 1.10,2016-02-10 06:25:00,
2016-02-10 00:40:00,28.4,22.0,30.36,West,277,0.0,0.0,77,0.00,,,0.00,weatherlink.com 1.10,2016-02-10 06:40:00,
2016-02-10 00:55:00,28.2,22.0,30.36,West,277,0.0,0.0,77,0.00,,,0.00,weatherlink.com 1.10,2016-02-10 06:55:00,
2016-02-10 01:10:00,28.2,22.0,30.36,West,277,0.0,0.0,78,0.00,,,0.00,weatherlink.com 1.10,2016-02-10 07:10:00,
2016-02-10 01:25:00,28.3,22.0,30.36,West,277,0.0,0.0,78,0.00,,,0.00,weatherlink.com 1.10,2016-02-10 07:25:00,
2016-02-10 01:40:00,28.3,22.0,30.36,West,277,0.0,0.0,78,0.00,,,0.00,weatherlink.com 1.10,2016-02-10 07:40:00,
2016-02-10 01:55:00,28.1,22.0,30.36,West,277,0.0,0.0,79,0.00,,,0.00,weatherlink.com 1.10,2016-02-10 07:55:00,
2016-02-10 02:10:00,27.7,22.0,30.36,West,277,0.0,0.0,79,0.00,,,0.00,weatherlink.com 1.10,2016-02-10 08:10:00,
2016-02-10 02:25:00,27.5,22.0,30.36,West,277,0.0,0.0,80,0.00,,,0.00,weatherlink.com 1.10,2016-02-10 08:25:00,
2016-02-10 02:40:00,27.1,22.0,30.36,West,277,0.0,0.0,80,0.00,,,0.00,weatherlink.com 1.10,2016-02-10 08:40:00,
2016-02-10 02:55:00,26.8,22.0,30.36,West,277,0.0,0.0,81,0.00,,,0.00,weatherlink.com 1.10,2016-02-10 08:55:00,
2016-02-10 03:10:00,26.6,22.0,30.36,West,277,0.0,0.0,81,0.00,,,0.00,weatherlink.com 1.10,2016-02-10 09:10:00,
2016-02-10 03:25:00,26.5,22.0,30.35,West,281,0.0,1.0,82,0.00,,,0.00,weatherlink.com 1.10,2016-02-10 09:25:00,
2016-02-10 03:40:00,26.1,21.0,30.35,West,281,0.0,1.0,82,0.00,,,0.00,weatherlink.com 1.10,2016-02-10 09:40:00,
2016-02-10 03:55:00,25.9,21.0,30.35,West,281,0.0,0.0,83,0.00,,,0.00,weatherlink.com 1.10,2016-02-10 09:55:00,
2016-02-10 04:10:00,25.6,21.0,30.35,West,281,0.0,1.0,83,0.00,,,0.00,weatherlink.com 1.10,2016-02-10 10:10:00,
2016-02-10 04:40:00,25.4,21.0,30.35,West,281,0.0,0.0,84,0.00,,,0.00,weatherlink.com 1.10,2016-02-10 10:40:00,
2016-02-10 04:55:00,25.1,21.0,30.36,West,281,0.0,0.0,85,0.00,,,0.00,weatherlink.com 1.10,2016-02-10 10:55:00,
2016-02-10 05:10:00,25.2,21.0,30.35,West,281,0.0,0.0,85,0.00,,,0.00,weatherlink.com 1.10,2016-02-10 11:10:00,
2016-02-10 05:25:00,25.1,21.0,30.35,West,281,0.0,0.0,85,0.00,,,0.00,weatherlink.com 1.10,2016-02-10 11:25:00,
2016-02-10 05:40:00,24.7,21.0,30.36,West,281,0.0,0.0,85,0.00,,,0.00,weatherlink.com 1.10,2016-02-10 11:40:00,
2016-02-10 05:55:00,24.6,21.0,30.36,West,281,0.0,0.0,86,0.00,,,0.00,weatherlink.com 1.10,2016-02-10 11:55:00,
2016-02-10 06:10:00,24.5,21.0,30.36,West,281,0.0,0.0,86,0.00,,,0.00,weatherlink.com 1.10,2016-02-10 12:10:00,
2016-02-10 06:25:00,24.6,21.0,30.36,West,281,0.0,0.0,86,0.00,,,0.00,weatherlink.com 1.10,2016-02-10 12:25:00,
2016-02-10 06:40:00,24.7,21.0,30.37,West,276,0.0,0.0,87,0.00,,,0.00,weatherlink.com 1.10,2016-02-10 12:40:00,
2016-02-10 06:55:00,24.5,21.0,30.37,West,275,0.0,-999.0,86,-99.99,,,0.00,weatherlink.com 1.10,2016-02-10 12:55:00,
2016-02-10 07:10:00,24.7,21.0,30.37,West,275,0.0,1.0,87,0.00,,,0.00,weatherlink.com 1.10,2016-02-10 13:10:00,
2016-02-10 07:25:00,24.6,21.0,30.37,West,275,0.0,1.0,87,0.00,,,0.00,weatherlink.com 1.10,2016-02-10 13:25:00,
2016-02-10 07:40:00,24.8,22.0,30.37,West,275,0.0,0.0,87,0.00,,,0.00,weatherlink.com 1.10,2016-02-10 13:40:00,
2016-02-10 07:55:00,24.8,22.0,30.37,West,276,0.0,0.0,87,0.00,,,0.00,weatherlink.com 1.10,2016-02-10 13:55:00,
2016-02-10 08:10:00,25.5,23.0,30.37,West,275,0.0,0.0,88,0.00,,,0.00,weatherlink.com 1.10,2016-02-10 14:10:00,
2016-02-10 08:25:00,27.0,24.0,30.37,West,276,0.0,0.0,88,0.00,,,0.00,weatherlink.com 1.10,2016-02-10 14:25:00,
2016-02-10 08:40:00,28.9,26.0,30.36,West,276,0.0,0.0,88,0.00,,,0.00,weatherlink.com 1.10,2016-02-10 14:40:00,
2016-02-10 08:55:00,31.6,29.0,30.36,West,276,1.0,1.0,88,0.00,,,0.00,weatherlink.com 1.10,2016-02-10 14:55:00,
2016-02-10 09:10:00,36.8,32.0,30.37,West,276,0.0,0.0,82,0.00,,,0.00,weatherlink.com 1.10,2016-02-10 15:10:00,
2016-02-10 09:25:00,42.3,35.0,30.37,West,276,0.0,0.0,74,0.00,,,0.00,weatherlink.com 1.10,2016-02-10 15:25:00,
2016-02-10 09:40:00,47.8,34.0,30.37,ENE,66,0.0,1.0,60,0.00,,,0.00,weatherlink.com 1.10,2016-02-10 15:40:00,
2016-02-10 09:56:00,52.4,32.0,30.37,WNW,290,0.0,3.0,47,0.00,,,0.00,weatherlink.com 1.10,2016-02-10 15:56:00,
2016-02-10 10:11:00,57.1,32.0,30.36,SW,235,0.0,2.0,39,0.00,,,0.00,weatherlink.com 1.10,2016-02-10 16:11:00,
2016-02-10 10:41:00,61.8,33.0,30.35,SE,143,0.0,3.0,34,0.00,,,0.00,weatherlink.com 1.10,2016-02-10 16:41:00,
2016-02-10 10:56:00,62.8,32.0,30.34,SSE,159,0.0,4.0,31,0.00,,,0.00,weatherlink.com 1.10,2016-02-10 16:56:00,
2016-02-10 11:11:00,64.1,31.0,30.34,SSE,164,1.0,5.0,29,0.00,,,0.00,weatherlink.com 1.10,2016-02-10 17:11:00,
2016-02-10 11:26:00,65.5,30.0,30.33,NE,51,3.0,5.0,26,0.00,,,0.00,weatherlink.com 1.10,2016-02-10 17:26:00,
2016-02-10 11:41:00,66.9,30.0,30.33,SSW,202,2.0,6.0,25,0.00,,,0.00,weatherlink.com 1.10,2016-02-10 17:41:00,
2016-02-10 11:56:00,67.5,31.0,30.32,SSE,162,1.0,7.0,26,0.00,,,0.00,weatherlink.com 1.10,2016-02-10 17:56:00,
2016-02-10 12:11:00,68.5,30.0,30.31,South,172,3.0,4.0,24,0.00,,,0.00,weatherlink.com 1.10,2016-02-10 18:11:00,
2016-02-10 12:41:00,70.8,30.0,30.29,East,87,1.0,5.0,22,0.00,,,0.00,weatherlink.com 1.10,2016-02-10 18:41:00,
2016-02-10 12:56:00,71.8,29.0,30.28,SSW,203,1.0,7.0,20,0.00,,,0.00,weatherlink.com 1.10,2016-02-10 18:56:00,
2016-02-10 13:11:00,72.4,29.0,30.27,NNW,342,3.0,5.0,20,0.00,,,0.00,weatherlink.com 1.10,2016-02-10 19:11:00,
2016-02-10 13:41:00,74.3,29.0,30.25,South,191,1.0,3.0,19,0.00,,,0.00,weatherlink.com 1.10,2016-02-10 19:41:00,
2016-02-10 13:56:00,74.5,30.0,30.24,WNW,300,1.0,6.0,19,0.00,,,0.00,weatherlink.com 1.10,2016-02-10 19:56:00,
2016-02-10 14:12:00,75.3,27.0,30.24,South,169,1.0,5.0,17,0.00,,,0.00,weatherlink.com 1.10,2016-02-10 20:12:00,
2016-02-10 14:27:00,75.2,27.0,30.23,South,173,0.0,8.0,17,0.00,,,0.00,weatherlink.com 1.10,2016-02-10 20:27:00,
2016-02-10 14:42:00,75.7,28.0,30.21,SW,229,2.0,6.0,17,0.00,,,0.00,weatherlink.com 1.10,2016-02-10 20:42:00,
2016-02-10 14:57:00,76.1,27.0,30.21,South,172,3.0,6.0,16,0.00,,,0.00,weatherlink.com 1.10,2016-02-10 20:57:00,
2016-02-10 15:12:00,76.5,27.0,30.20,SW,226,2.0,7.0,16,0.00,,,0.00,weatherlink.com 1.10,2016-02-10 21:12:00,
2016-02-10 15:27:00,77.0,27.0,30.20,SSE,159,3.0,7.0,16,0.00,,,0.00,weatherlink.com 1.10,2016-02-10 21:27:00,
2016-02-10 15:42:00,77.0,26.0,30.19,SW,225,3.0,6.0,15,0.00,,,0.00,weatherlink.com 1.10,2016-02-10 21:42:00,
2016-02-10 15:57:00,76.8,26.0,30.18,SE,135,0.0,7.0,15,0.00,,,0.00,weatherlink.com 1.10,2016-02-10 21:57:00,
2016-02-10 16:27:00,77.4,26.0,30.17,SSE,161,1.0,8.0,15,0.00,,,0.00,weatherlink.com 1.10,2016-02-10 22:27:00,
2016-02-10 16:42:00,77.2,26.0,30.17,SW,226,0.0,7.0,15,0.00,,,0.00,weatherlink.com 1.10,2016-02-10 22:42:00,
2016-02-10 16:57:00,76.4,25.0,30.16,WNW,293,1.0,4.0,15,0.00,,,0.00,weatherlink.com 1.10,2016-02-10 22:57:00,
2016-02-10 17:12:00,74.9,26.0,30.16,West,274,1.0,4.0,16,0.00,,,0.00,weatherlink.com 1.10,2016-02-10 23:12:00,
2016-02-10 17:27:00,73.8,25.0,30.16,South,191,2.0,4.0,16,0.00,,,0.00,weatherlink.com 1.10,2016-02-10 23:27:00,
2016-02-10 17:42:00,72.4,25.0,30.15,NW,304,3.0,3.0,17,0.00,,,0.00,weatherlink.com 1.10,2016-02-10 23:42:00,
2016-02-10 17:57:00,70.8,25.0,30.15,SSE,162,0.0,3.0,18,0.00,,,0.00,weatherlink.com 1.10,2016-02-10 23:57:00,
2016-02-10 18:12:00,69.1,25.0,30.15,WNW,285,1.0,2.0,19,0.00,,,0.00,weatherlink.com 1.10,2016-02-11 00:12:00,
2016-02-10 18:27:00,67.2,25.0,30.15,WNW,290,0.0,3.0,20,0.00,,,0.00,weatherlink.com 1.10,2016-02-11 00:27:00,
2016-02-10 18:42:00,65.2,26.0,30.15,West,270,0.0,1.0,23,0.00,,,0.00,weatherlink.com 1.10,2016-02-11 00:42:00,
2016-02-10 18:57:00,61.3,27.0,30.15,SSW,207,0.0,1.0,27,0.00,,,0.00,weatherlink.com 1.10,2016-02-11 00:57:00,
2016-02-10 19:12:00,58.3,25.0,30.15,SW,224,0.0,1.0,28,0.00,,,0.00,weatherlink.com 1.10,2016-02-11 01:12:00,
2016-02-10 19:27:00,58.0,26.0,30.15,SSW,204,0.0,1.0,29,0.00,,,0.00,weatherlink.com 1.10,2016-02-11 01:27:00,
2016-02-10 19:42:00,59.0,25.0,30.15,SW,226,0.0,2.0,27,0.00,,,0.00,weatherlink.com 1.10,2016-02-11 01:42:00,
2016-02-10 19:57:00,60.0,25.0,30.15,SE,135,0.0,1.0,26,0.00,,,0.00,weatherlink.com 1.10,2016-02-11 01:57:00,
2016-02-10 20:12:00,61.2,25.0,30.15,SW,223,0.0,3.0,25,0.00,,,0.00,weatherlink.com 1.10,2016-02-11 02:12:00,
2016-02-10 20:27:00,62.2,24.0,30.15,WSW,245,0.0,3.0,23,0.00,,,0.00,weatherlink.com 1.10,2016-02-11 02:27:00,